Overview Statistics Trail Chart Weather Telemetry Raw packets
 

This is the latest recevied weather packets stored in our database for station/object N7ZEF. If no packets are shown the sender has not sent any weather packets the latest 10 day(s).

<< 16 17 18 19 20 21 22 >>
Time Temp. Humidity Pressure Rain* Wind** Luminosity Snow
1777918428 16.11° C 28% 1011.8 hPa 0 mm - - -
1777917826 16.67° C 28% 1012.2 hPa 0 mm - - -
1777917225 16.11° C 28% 1011.9 hPa 0 mm - - -
1777916624 16.11° C 29% 1012.3 hPa 0 mm - - -
1777916022 17.22° C 28% 1012.3 hPa 0 mm - - -
1777915421 17.22° C 27% 1012.3 hPa 0 mm - - -
1777914819 17.22° C 27% 1012.6 hPa 0 mm - - -
1777914218 16.67° C 22% 1012.4 hPa 0 mm - - -
1777913617 16.67° C 22% 1012.4 hPa 0 mm - - -
1777913015 16.11° C 24% 1012.4 hPa 0 mm - - -
1777912414 16.11° C 23% 1012.6 hPa 0 mm - - -
1777911812 16.11° C 24% 1012.4 hPa 0 mm - - -
1777911209 16.11° C 24% 1012.6 hPa 0 mm - - -
1777910613 16.11° C 23% 1012.6 hPa 0 mm - - -
1777910006 16.11° C 23% 1012.6 hPa 0 mm - - -
1777909405 15.56° C 24% 1012.6 hPa 0 mm - - -
1777908804 14.44° C 28% 1012.7 hPa 0 mm - - -
1777908202 13.89° C 34% 1013.1 hPa 0 mm - - -
1777907601 13.33° C 35% 1013.1 hPa 0 mm - - -
1777906999 13.33° C 35% 1013.2 hPa 0 mm - - -
1777906398 12.78° C 35% 1013.3 hPa 0 mm - - -
1777905797 12.22° C 35% 1013.5 hPa 0 mm - - -
1777905195 11.67° C 36% 1013.5 hPa 0 mm - - -
1777904594 11.67° C 37% 1013.5 hPa 0 mm - - -
1777903993 11.11° C 36% 1013.5 hPa 0 mm - - -

* Rain latest hour (hover to see other rain measurements)
** Current wind speed in m/s (hover to see current wind gust speed)